This is the latest recevied weather packets stored in our database for station/object SP1BMW-13. If no packets are shown the sender has not sent any weather packets the latest 10 day(s).
| Time | Temp. | Humidity | Pressure | Rain* | Wind** | Luminosity | Snow |
|---|---|---|---|---|---|---|---|
| 1777182534 | 6.67° C | 71% | 1020.5 hPa | 0 mm | 1.79 m/s, 312° | 118 W/m² | - |
| 1777182470 | 6.67° C | 72% | 1020.7 hPa | 0 mm | 1.34 m/s, 299° | 116 W/m² | - |
| 1777182408 | 6.67° C | 71% | 1020.6 hPa | 0 mm | 1.79 m/s, 275° | 114 W/m² | - |
| 1777182348 | 6.67° C | 72% | 1020.6 hPa | 0 mm | 2.68 m/s, 295° | 112 W/m² | - |
| 1777182288 | 6.67° C | 72% | 1020.5 hPa | 0 mm | 1.34 m/s, 296° | 109 W/m² | - |
| 1777182228 | 6.67° C | 73% | 1020.6 hPa | 0 mm | 1.34 m/s, 287° | 107 W/m² | - |
| 1777182168 | 6.67° C | 72% | 1020.4 hPa | 0 mm | 2.68 m/s, 297° | 105 W/m² | - |
| 1777182108 | 6.67° C | 72% | 1020.6 hPa | 0 mm | 3.13 m/s, 254° | 103 W/m² | - |
| 1777182048 | 6.67° C | 72% | 1020.5 hPa | 0 mm | 1.79 m/s, 293° | 101 W/m² | - |
| 1777181988 | 6.67° C | 72% | 1020.6 hPa | 0 mm | 2.68 m/s, 285° | 99 W/m² | - |
| 1777181928 | 6.67° C | 72% | 1020.5 hPa | 0 mm | 1.34 m/s, 293° | 97 W/m² | - |
| 1777181868 | 6.67° C | 72% | 1020.4 hPa | 0 mm | 1.34 m/s, 258° | 95 W/m² | - |
| 1777181808 | 6.67° C | 73% | 1020.5 hPa | 0 mm | 1.79 m/s, 298° | 93 W/m² | - |
| 1777181748 | 6.67° C | 73% | 1020.4 hPa | 0 mm | 0.89 m/s, 296° | 91 W/m² | - |
| 1777181691 | 6.67° C | 73% | 1020.4 hPa | 0 mm | 0.89 m/s, 306° | 90 W/m² | - |
| 1777181628 | 6.67° C | 72% | 1020.3 hPa | 0 mm | 0.89 m/s, 274° | 88 W/m² | - |
| 1777181568 | 6.67° C | 72% | 1020.3 hPa | 0 mm | 2.24 m/s, 267° | 86 W/m² | - |
| 1777181508 | 6.67° C | 73% | 1020.5 hPa | 0 mm | 0.89 m/s, 285° | 83 W/m² | - |
| 1777181448 | 6.67° C | 74% | 1020.2 hPa | 0 mm | 0.89 m/s, 259° | 82 W/m² | - |
| 1777181391 | 6.67° C | 73% | 1020.3 hPa | 0 mm | 1.34 m/s, 289° | 80 W/m² | - |
| 1777181328 | 6.67° C | 73% | 1020.3 hPa | 0 mm | 0.89 m/s, 304° | 78 W/m² | - |
| 1777181268 | 6.67° C | 73% | 1020.4 hPa | 0 mm | 1.79 m/s, 309° | 76 W/m² | - |
| 1777181208 | 6.67° C | 72% | 1020.2 hPa | 0 mm | 1.34 m/s, 176° | 75 W/m² | - |
| 1777181148 | 6.67° C | 74% | 1020.2 hPa | 0 mm | 0.89 m/s, 301° | 72 W/m² | - |
| 1777181088 | 6.67° C | 74% | 1020.3 hPa | 0 mm | 0.89 m/s, 233° | 70 W/m² | - |
* Rain latest hour (hover to see other rain measurements)
** Current wind speed in m/s (hover to see current wind gust speed)